Location: Plainartige
(45.6866°N, 1.7993°E)
Time: 06:30:59
(UTC+00:00)

Oscar 19 - Pass Details

Date: 05 July 2022
Orbit: 773 x 790 km, 98.8° (Epoch: 12 August)

Event Time Altitude Azimuth Distance (km) Brightness Sun altitude
Rises 03:15:05 0° 17° (NNE) 3,261 15.1 -8.1°
Reaches altitude 10° 03:17:27 10° 21° (NNE) 2,329 14.3 -7.9°
Maximum altitude 03:22:31 62° 102° (ESE) 872 11.1 -7.2°
Drops below altitude 10° 03:27:34 10° 183° (S) 2,314 12.7 -6.6°
Sets 03:29:54 0° 187° (S) 3,238 13.4 -6.3°
